OAS044 SKBO-MMMX

Flight info

Callsign OAS044
Flight time N/A
Altitude 34000
Route TOBK4R VASIL UL423 PULOX DCT SIGUN UM549 TBG UM419 ASOKU DCT UGATA UL655 AVALI UT169 UMAVO UT101 ENAGA ENAG3A
Aircraft B77W/H-SDE1E2E3FGHIJ2J3J4J5M1RWXY/LB1D1

Departure

Time 2026-05-06 13:25
Airport El Dorado International Airport (SKBO)

Arrival

Time N/A
Airport Mexico City Benito Juárez International Airport (MMMX)
Time Latitude Longitude Altitude Speed Heading
2026-05-06 13:11 4.69839 -74.13913 8370 ft 0 kts 217°
2026-05-06 13:14 4.69848 -74.13906 8371 ft 4 kts 216°
2026-05-06 13:15 4.69871 -74.13890 8371 ft 4 kts 216°
2026-05-06 13:15 4.69886 -74.13878 8371 ft 4 kts 231°
2026-05-06 13:15 4.69894 -74.13866 8371 ft 4 kts 278°
2026-05-06 13:15 4.69887 -74.13850 8371 ft 2 kts 307°
2026-05-06 13:16 4.69900 -74.13867 8371 ft 4 kts 307°
2026-05-06 13:16 4.69916 -74.13888 8371 ft 4 kts 307°
2026-05-06 13:16 4.69932 -74.13910 8371 ft 4 kts 307°
2026-05-06 13:16 4.69949 -74.13932 8371 ft 4 kts 307°
2026-05-06 13:17 4.69965 -74.13953 8371 ft 4 kts 307°
2026-05-06 13:17 4.69981 -74.13975 8371 ft 4 kts 307°
2026-05-06 13:17 4.69986 -74.13981 8371 ft 0 kts 307°
2026-05-06 13:19 4.69986 -74.13982 8371 ft 1 kts 307°
2026-05-06 13:19 4.70020 -74.14020 8371 ft 10 kts 327°
2026-05-06 13:20 4.70085 -74.14005 8371 ft 11 kts 36°
2026-05-06 13:20 4.70151 -74.13982 8371 ft 11 kts 342°
2026-05-06 13:20 4.70206 -74.14036 8371 ft 11 kts 306°
2026-05-06 13:20 4.70253 -74.14097 8371 ft 11 kts 311°
2026-05-06 13:21 4.70301 -74.14162 8371 ft 13 kts 305°
2026-05-06 13:21 4.70369 -74.14254 8371 ft 20 kts 307°
2026-05-06 13:21 4.70452 -74.14363 8371 ft 20 kts 307°
2026-05-06 13:21 4.70548 -74.14487 8371 ft 25 kts 307°
2026-05-06 13:22 4.70658 -74.14633 8372 ft 26 kts 309°
2026-05-06 13:22 4.70769 -74.14779 8371 ft 26 kts 307°
2026-05-06 13:22 4.70879 -74.14927 8371 ft 26 kts 307°
2026-05-06 13:22 4.70990 -74.15073 8371 ft 26 kts 307°
2026-05-06 13:23 4.71100 -74.15217 8372 ft 26 kts 306°
2026-05-06 13:23 4.71182 -74.15294 8371 ft 9 kts 348°
2026-05-06 13:23 4.71254 -74.15266 8371 ft 15 kts 38°
2026-05-06 13:23 4.71313 -74.15214 8371 ft 4 kts 38°
2026-05-06 13:24 4.71320 -74.15187 8371 ft 4 kts 98°
2026-05-06 13:24 4.71311 -74.15169 8370 ft 0 kts 125°
2026-05-06 13:24 4.71240 -74.15071 8371 ft 51 kts 126°
2026-05-06 13:25 4.70874 -74.14590 8371 ft 122 kts 127°
2026-05-06 13:25 4.70223 -74.13727 8370 ft 189 kts 127°
2026-05-06 13:25 4.69338 -74.12542 8689 ft 223 kts 126°
2026-05-06 13:25 4.68346 -74.11347 9862 ft 212 kts 143°
2026-05-06 13:26 4.66977 -74.10850 10718 ft 218 kts 178°
2026-05-06 13:26 4.65492 -74.11329 10826 ft 238 kts 219°
2026-05-06 13:26 4.64614 -74.12739 11111 ft 247 kts 259°
2026-05-06 13:26 4.64510 -74.14451 11486 ft 246 kts 259°
2026-05-06 13:27 4.64151 -74.15522 11660 ft 246 kts 238°
2026-05-06 13:27 4.63299 -74.17033 11931 ft 255 kts 240°
2026-05-06 13:27 4.62496 -74.18699 12082 ft 276 kts 244°
2026-05-06 13:27 4.61696 -74.20524 12278 ft 294 kts 245°
2026-05-06 13:28 4.61095 -74.22524 12557 ft 311 kts 257°
2026-05-06 13:28 4.60698 -74.24725 12777 ft 330 kts 259°
2026-05-06 13:28 4.60300 -74.27067 12928 ft 353 kts 260°
2026-05-06 13:28 4.60077 -74.29273 13055 ft 373 kts 266°
2026-05-06 13:29 4.59999 -74.31301 13174 ft 390 kts 267°
2026-05-06 13:29 4.59907 -74.34081 13398 ft 406 kts 267°
2026-05-06 13:29 4.59782 -74.36930 13934 ft 414 kts 266°
2026-05-06 13:30 4.59916 -74.39815 14291 ft 421 kts 283°
2026-05-06 13:30 4.60997 -74.42540 14814 ft 423 kts 303°
2026-05-06 13:30 4.62763 -74.44872 15442 ft 420 kts 310°
2026-05-06 13:30 4.64623 -74.47161 15992 ft 425 kts 310°
2026-05-06 13:31 4.66489 -74.49474 16569 ft 428 kts 310°
2026-05-06 13:31 4.68350 -74.51808 17194 ft 431 kts 310°
2026-05-06 13:31 4.70219 -74.54177 17809 ft 434 kts 309°
2026-05-06 13:31 4.72096 -74.56569 18411 ft 438 kts 309°
2026-05-06 13:32 4.73985 -74.58976 18913 ft 442 kts 309°
2026-05-06 13:32 4.75846 -74.61401 20316 ft 435 kts 306°
2026-05-06 13:32 4.77608 -74.63872 20964 ft 438 kts 305°
2026-05-06 13:32 4.79372 -74.66437 21085 ft 456 kts 304°
2026-05-06 13:33 4.81195 -74.69113 21161 ft 474 kts 304°
2026-05-06 13:33 4.83093 -74.71897 21260 ft 493 kts 304°
2026-05-06 13:33 4.85070 -74.74777 21388 ft 511 kts 304°
2026-05-06 13:33 4.87130 -74.77761 21526 ft 528 kts 304°
2026-05-06 13:34 4.89256 -74.80828 21721 ft 543 kts 304°
2026-05-06 13:34 4.91437 -74.83967 22066 ft 552 kts 305°
2026-05-06 13:34 4.93645 -74.87145 22557 ft 558 kts 304°
2026-05-06 13:34 4.95865 -74.90340 23144 ft 560 kts 304°
2026-05-06 13:35 4.98091 -74.93547 23732 ft 563 kts 304°
2026-05-06 13:35 5.00341 -74.96788 24168 ft 568 kts 304°
2026-05-06 13:35 5.02605 -75.00053 24574 ft 574 kts 304°
2026-05-06 13:35 5.04896 -75.03355 24976 ft 578 kts 304°
2026-05-06 13:36 5.07202 -75.06683 25390 ft 582 kts 304°
2026-05-06 13:36 5.09523 -75.10031 25747 ft 587 kts 304°
2026-05-06 13:36 5.11857 -75.13392 26216 ft 590 kts 304°
2026-05-06 13:36 5.14213 -75.16795 26499 ft 595 kts 304°
2026-05-06 13:37 5.16674 -75.20137 26877 ft 598 kts 310°
2026-05-06 13:37 5.19394 -75.23298 27371 ft 597 kts 313°
2026-05-06 13:37 5.22164 -75.26395 27680 ft 601 kts 312°
2026-05-06 13:37 5.24988 -75.29525 27996 ft 605 kts 314°
2026-05-06 13:38 5.27821 -75.32668 28254 ft 609 kts 313°
2026-05-06 13:38 5.30660 -75.35839 28390 ft 614 kts 312°
2026-05-06 13:38 5.33501 -75.39040 28832 ft 611 kts 313°
2026-05-06 13:38 5.36316 -75.42228 29260 ft 610 kts 313°
2026-05-06 13:39 5.39126 -75.45418 29602 ft 610 kts 312°
2026-05-06 13:39 5.41918 -75.48589 30290 ft 603 kts 313°
2026-05-06 13:39 5.44687 -75.51734 30859 ft 600 kts 312°
2026-05-06 13:39 5.47443 -75.54862 31334 ft 598 kts 313°
2026-05-06 13:40 5.50205 -75.57995 31619 ft 599 kts 312°
2026-05-06 13:40 5.52957 -75.61113 32042 ft 598 kts 313°
2026-05-06 13:40 5.55720 -75.64244 32273 ft 602 kts 313°
2026-05-06 13:40 5.58512 -75.67408 32382 ft 605 kts 312°
2026-05-06 13:41 5.61279 -75.70550 33008 ft 598 kts 313°
2026-05-06 13:41 5.64036 -75.73681 33296 ft 600 kts 313°
2026-05-06 13:41 5.66808 -75.76826 33392 ft 603 kts 313°
2026-05-06 13:41 5.69593 -75.79986 33627 ft 603 kts 313°
2026-05-06 13:42 5.72358 -75.83138 33925 ft 602 kts 312°
2026-05-06 13:42 5.77772 -75.89567 34002 ft 601 kts 310°
2026-05-06 13:43 5.83054 -75.95997 33990 ft 593 kts 310°
2026-05-06 13:43 5.88320 -76.02381 33996 ft 595 kts 311°
2026-05-06 13:44 5.93646 -76.08787 33994 ft 600 kts 311°
2026-05-06 13:44 5.99026 -76.15244 34005 ft 606 kts 311°
2026-05-06 13:45 6.04389 -76.21690 33995 ft 603 kts 311°
2026-05-06 13:45 6.09714 -76.28097 34001 ft 592 kts 311°
2026-05-06 13:45 6.12381 -76.31308 34005 ft 591 kts 311°
2026-05-06 13:46 6.17656 -76.37657 34005 ft 592 kts 311°
2026-05-06 13:46 6.22935 -76.44013 34009 ft 592 kts 311°
2026-05-06 13:47 6.28204 -76.50360 34014 ft 592 kts 311°
2026-05-06 13:47 6.33454 -76.56686 34004 ft 591 kts 311°
2026-05-06 13:48 6.38731 -76.63047 34010 ft 587 kts 311°
2026-05-06 13:48 6.43928 -76.69312 34006 ft 587 kts 311°
2026-05-06 13:49 6.49150 -76.75611 34005 ft 587 kts 311°
2026-05-06 13:49 6.54141 -76.81633 34004 ft 587 kts 311°
2026-05-06 13:50 6.57375 -76.85536 34007 ft 588 kts 311°
2026-05-06 13:50 6.62612 -76.91859 34004 ft 589 kts 311°
2026-05-06 13:51 6.67861 -76.98198 34009 ft 589 kts 311°
2026-05-06 13:51 6.73107 -77.04537 34007 ft 590 kts 311°
2026-05-06 13:52 6.78366 -77.10893 34007 ft 591 kts 311°
2026-05-06 13:52 6.83618 -77.17244 34003 ft 591 kts 311°
2026-05-06 13:53 6.88875 -77.23603 34003 ft 591 kts 311°
2026-05-06 13:53 6.94123 -77.29953 34004 ft 590 kts 310°
2026-05-06 13:54 6.99363 -77.36297 34004 ft 590 kts 310°
2026-05-06 13:54 7.04609 -77.42648 34010 ft 589 kts 310°
2026-05-06 13:55 7.09854 -77.49002 34014 ft 590 kts 310°
2026-05-06 13:55 7.15093 -77.55352 34008 ft 590 kts 311°
2026-05-06 13:56 7.20345 -77.61720 34006 ft 591 kts 310°
2026-05-06 13:56 7.25602 -77.68096 34004 ft 592 kts 310°
2026-05-06 13:57 7.30861 -77.74479 34003 ft 592 kts 311°
2026-05-06 13:57 7.36117 -77.80861 34005 ft 592 kts 311°
2026-05-06 13:58 7.41336 -77.87205 34003 ft 591 kts 310°
2026-05-06 13:58 7.46566 -77.93595 34002 ft 591 kts 311°
2026-05-06 13:59 7.51789 -77.99990 33996 ft 591 kts 310°
2026-05-06 13:59 7.57009 -78.06381 33989 ft 591 kts 310°
2026-05-06 14:00 7.62236 -78.12779 33998 ft 592 kts 310°
2026-05-06 14:00 7.67468 -78.19184 33996 ft 592 kts 311°
2026-05-06 14:01 7.72704 -78.25598 34011 ft 592 kts 310°
2026-05-06 14:01 7.77931 -78.32003 34012 ft 591 kts 310°
2026-05-06 14:02 7.83149 -78.38401 34008 ft 591 kts 310°
2026-05-06 14:02 7.88369 -78.44804 34005 ft 590 kts 310°
2026-05-06 14:03 7.93576 -78.51194 34003 ft 589 kts 310°
2026-05-06 14:03 7.98777 -78.57579 34004 ft 589 kts 310°
2026-05-06 14:04 8.03973 -78.63961 34006 ft 588 kts 310°
2026-05-06 14:04 8.09165 -78.70342 34003 ft 588 kts 310°
2026-05-06 14:05 8.14357 -78.76723 34005 ft 588 kts 310°
2026-05-06 14:05 8.19546 -78.83106 34005 ft 588 kts 310°
2026-05-06 14:06 8.24737 -78.89493 34004 ft 589 kts 310°
2026-05-06 14:06 8.29935 -78.95892 34004 ft 589 kts 310°
2026-05-06 14:07 8.35094 -79.02245 34000 ft 589 kts 310°
2026-05-06 14:07 8.40290 -79.08648 34006 ft 590 kts 310°
2026-05-06 14:08 8.45491 -79.15059 33999 ft 590 kts 310°
2026-05-06 14:08 8.50686 -79.21467 34003 ft 589 kts 310°
2026-05-06 14:09 8.55815 -79.27795 34004 ft 589 kts 310°
2026-05-06 14:09 8.61000 -79.34197 34004 ft 589 kts 310°
2026-05-06 14:10 8.66188 -79.40605 34003 ft 588 kts 310°
2026-05-06 14:10 8.69650 -79.44883 34004 ft 588 kts 310°
2026-05-06 14:11 8.72864 -79.48857 34005 ft 589 kts 310°
2026-05-06 14:11 8.77169 -79.54180 34005 ft 589 kts 310°
2026-05-06 14:12 8.81930 -79.60904 34009 ft 588 kts 302°
2026-05-06 14:12 8.86280 -79.67919 34005 ft 589 kts 301°
2026-05-06 14:13 8.90613 -79.74937 34005 ft 589 kts 301°
2026-05-06 14:13 8.95002 -79.81950 34005 ft 590 kts 302°
2026-05-06 14:14 8.99415 -79.88953 34005 ft 590 kts 302°
2026-05-06 14:14 9.03824 -79.95954 34004 ft 590 kts 302°
2026-05-06 14:15 9.08229 -80.02963 34006 ft 590 kts 302°
2026-05-06 14:15 9.12628 -80.09971 34006 ft 590 kts 302°
2026-05-06 14:16 9.17031 -80.16989 34006 ft 590 kts 302°
2026-05-06 14:16 9.21426 -80.23997 34003 ft 590 kts 302°
2026-05-06 14:17 9.25817 -80.31003 34002 ft 589 kts 302°
2026-05-06 14:17 9.30208 -80.38013 34004 ft 589 kts 302°
2026-05-06 14:18 9.34592 -80.45014 34004 ft 588 kts 302°
2026-05-06 14:18 9.38968 -80.52008 34005 ft 588 kts 302°
2026-05-06 14:19 9.43343 -80.59004 34003 ft 588 kts 302°
2026-05-06 14:19 9.47698 -80.65973 34005 ft 589 kts 302°
2026-05-06 14:20 9.52076 -80.72981 34005 ft 589 kts 302°
2026-05-06 14:20 9.56450 -80.79991 34005 ft 589 kts 302°
2026-05-06 14:21 9.60833 -80.87011 34005 ft 589 kts 302°
2026-05-06 14:21 9.65235 -80.94032 34005 ft 590 kts 302°
2026-05-06 14:22 9.69634 -81.01045 33999 ft 590 kts 302°
2026-05-06 14:22 9.74027 -81.08059 34003 ft 590 kts 302°
2026-05-06 14:23 9.78422 -81.15085 34004 ft 589 kts 302°
2026-05-06 14:23 9.82809 -81.22102 34003 ft 589 kts 302°
2026-05-06 14:24 9.87196 -81.29124 34003 ft 589 kts 302°
2026-05-06 14:24 9.91576 -81.36137 34004 ft 589 kts 302°
2026-05-06 14:25 9.95961 -81.43163 34004 ft 589 kts 302°
2026-05-06 14:25 10.00344 -81.50192 34005 ft 589 kts 302°
2026-05-06 14:26 10.04719 -81.57210 34003 ft 589 kts 302°
2026-05-06 14:26 10.09096 -81.64235 34005 ft 589 kts 302°
2026-05-06 14:27 10.13446 -81.71223 34003 ft 589 kts 302°
2026-05-06 14:27 10.17824 -81.78259 34005 ft 589 kts 301°
2026-05-06 14:28 10.22197 -81.85291 34003 ft 589 kts 301°
2026-05-06 14:28 10.26568 -81.92325 34004 ft 589 kts 301°
2026-05-06 14:29 10.30944 -81.99372 34004 ft 589 kts 301°
2026-05-06 14:29 10.35312 -82.06409 34004 ft 589 kts 301°
2026-05-06 14:30 10.39684 -82.13458 34004 ft 589 kts 301°
2026-05-06 14:30 10.44049 -82.20501 34004 ft 589 kts 301°
2026-05-06 14:31 10.48411 -82.27542 34007 ft 589 kts 301°
2026-05-06 14:31 10.52780 -82.34600 34020 ft 591 kts 301°
2026-05-06 14:32 10.54969 -82.38138 34229 ft 593 kts 301°
2026-05-06 14:32 10.57165 -82.41688 34545 ft 591 kts 301°
2026-05-06 14:32 10.59345 -82.45212 34909 ft 589 kts 301°
2026-05-06 14:32 10.61523 -82.48736 35258 ft 587 kts 301°
2026-05-06 14:33 10.63691 -82.52245 35571 ft 585 kts 301°
2026-05-06 14:33 10.65851 -82.55742 35836 ft 584 kts 301°
2026-05-06 14:33 10.68009 -82.59237 35950 ft 586 kts 301°
2026-05-06 14:33 10.70185 -82.62763 36001 ft 587 kts 301°
2026-05-06 14:34 10.74588 -82.69796 36016 ft 593 kts 302°
2026-05-06 14:34 10.79100 -82.76871 36013 ft 599 kts 302°
2026-05-06 14:35 10.83652 -82.84021 36004 ft 605 kts 302°
2026-05-06 14:35 10.88198 -82.91197 36016 ft 610 kts 302°
2026-05-06 14:36 10.92835 -82.98534 36014 ft 615 kts 302°
2026-05-06 14:36 10.97452 -83.05839 36013 ft 619 kts 302°
2026-05-06 14:37 11.02119 -83.13227 36013 ft 622 kts 302°